Vorticity
14 9 5 4 9 12 12 9 7 6 6 6 6 6 6 5 5 4 4 4 4 5 5 5 5 5 6 6 6 6 6 6 6 7 7 7 6 5 4 4 7 12 19 26 26 23 18 13 12 13 15 17 18 18 16 14 9 6 4 4 4 4 3 3 4 4 4 3 3
3 1 1 4 9 11 10 9 8 8 7 7 6 6 5 4 4 3 3 4 5 5 5 6 5 6 6 6 7 7 7 7 8 8 7 7 6 5 5 4 5 7 10 14 16 16 14 11 10 9 9 10 10 9 8 7 5 4 4 4 4 4 3 3 4 4 3 2 2
-4 -3 0 6 9 9 8 8 7 7 6 6 5 4 3 2 1 1 2 3 4 5 5 5 5 5 5 6 7 7 8 8 8 8 7 7 6 6 6 5 5 6 7 9 11 13 13 12 10 9 8 7 7 7 7 7 7 7 7 7 6 6 5 4 4 3 2 1 1
-5 -5 -0 5 7 7 5 4 5 5 4 2 1 0 -1 -2 -2 -2 -0 2 4 5 5 5 4 4 4 5 6 7 8 8 8 7 7 7 6 6 6 6 5 5 6 8 10 12 13 14 15 14 13 12 11 11 11 12 13 13 12 11 9 7 5 4 3 1 -0 -1 -1
-3 -5 -3 2 4 4 3 3 4 3 2 -1 -3 -4 -4 -5 -4 -2 1 4 6 6 5 4 3 3 3 4 5 6 7 7 7 7 7 7 7 6 6 5 5 5 5 6 8 10 12 15 16 16 14 12 10 9 10 11 11 11 11 10 8 6 4 3 3 2 1 2 4
-1 -5 -6 -2 3 6 8 8 8 5 2 -1 -3 -4 -4 -4 -1 2 6 8 8 7 6 4 4 3 3 4 5 6 6 7 7 7 7 7 7 6 6 5 5 4 4 4 5 7 10 12 13 13 11 9 7 6 5 5 6 7 8 9 8 7 7 8 10 11 14 16 17
2 -2 -3 0 8 14 17 15 12 8 5 2 1 1 2 3 7 9 11 10 9 7 6 5 5 5 5 5 6 6 6 6 6 7 7 7 7 6 6 5 5 4 4 4 4 5 7 9 11 11 11 10 8 7 6 6 7 9 10 11 12 12 13 15 17 19 19 19 17
7 4 4 8 16 21 22 18 13 10 7 7 8 9 10 12 13 13 12 10 8 7 6 6 6 6 6 7 7 7 7 7 6 6 7 7 6 6 5 5 5 5 5 5 5 5 6 7 9 10 11 11 11 11 11 12 13 14 15 15 15 14 15 15 14 12 11 8 5
11 11 12 16 22 24 23 18 13 9 7 8 10 11 13 15 14 13 10 9 7 6 6 7 7 7 8 9 8 8 7 7 7 7 7 6 6 6 5 5 4 4 4 4 5 5 6 7 8 9 11 12 14 15 16 16 16 15 14 13 11 10 9 8 6 4 2 -0 -2
11 15 19 24 27 27 23 17 11 7 5 5 5 7 8 10 11 10 8 7 5 6 6 7 7 8 9 9 8 7 7 7 7 7 7 7 6 6 5 4 4 4 3 4 4 5 6 7 8 9 10 13 16 17 18 16 14 11 9 7 6 5 3 2 1 -0 -2 -2 -2
9 16 23 30 32 29 23 15 9 6 4 2 2 2 3 5 6 7 7 6 6 7 8 7 8 8 8 7 6 6 6 6 6 7 7 7 6 6 5 5 5 4 4 4 5 5 6 7 8 8 10 12 14 16 15 13 10 8 5 4 2 2 1 -0 -1 -0 0 1 2
13 20 27 33 31 26 19 12 8 5 3 2 2 2 3 3 4 5 6 7 9 10 11 10 10 9 7 5 4 4 4 4 5 6 6 7 7 7 6 6 5 5 5 5 5 6 6 6 7 7 8 9 10 10 9 8 5 3 2 0 -0 -0 -0 0 2 3 5 6 6
21 24 27 28 24 19 14 9 7 5 5 5 6 6 6 6 5 4 5 6 10 13 14 15 13 10 7 5 3 2 2 3 4 5 6 7 7 7 7 7 6 6 6 6 6 6 6 6 6 6 6 5 5 4 3 2 1 1 0 0 1 2 3 4 5 6 6 6 6
21 21 20 18 15 12 9 8 7 7 7 8 8 9 8 8 7 5 4 3 7 11 14 15 13 11 8 5 3 2 2 2 3 4 5 6 7 7 7 7 7 6 6 6 6 6 6 6 5 5 4 3 3 2 2 1 2 2 3 4 5 5 6 6 6 5 5 5 5
15 13 12 10 8 7 7 7 8 8 9 9 9 9 9 10 9 7 5 3 4 6 9 11 11 10 9 7 4 3 2 2 2 3 4 5 6 6 6 6 6 6 6 6 6 6 6 6 6 5 5 4 4 4 4 4 5 5 6 6 6 6 6 5 4 4 4 4 5
16 11 8 8 8 7 7 7 7 8 8 8 8 9 9 10 10 9 8 6 4 3 4 7 9 10 10 9 7 4 2 1 2 2 3 4 5 5 5 5 5 5 5 5 5 5 5 5 5 6 6 6 6 6 6 6 6 6 6 5 5 5 4 4 3 3 3 4 5
24 17 13 13 12 10 8 7 6 7 7 7 7 8 9 9 10 9 9 8 6 5 4 4 6 9 11 12 9 7 4 2 2 2 2 3 3 4 4 4 4 4 4 4 4 3 3 4 4 4 4 5 5 5 5 5 5 5 5 5 4 4 4 3 3 3 4 5 6
27 25 22 21 19 16 12 8 7 7 7 7 7 7 8 8 8 8 8 8 7 6 5 4 5 7 10 13 12 9 7 4 3 2 2 2 2 2 2 3 3 3 3 3 3 3 3 3 3 3 2 2 3 3 4 4 5 5 5 5 4 3 3 2 2 3 4 6 6
19 23 24 24 22 20 16 13 10 8 7 6 6 6 6 6 6 7 7 8 7 7 6 5 4 6 8 11 12 11 9 7 6 4 3 3 3 2 2 2 3 3 3 3 4 4 4 4 4 3 3 3 3 3 4 5 5 5 5 4 3 2 2 2 3 5 6 7 7
11 16 18 18 17 17 17 17 13 9 7 6 5 5 5 5 6 6 7 7 8 8 8 7 6 6 6 8 9 10 10 9 8 7 6 5 4 4 4 3 4 4 5 5 6 6 7 7 6 6 5 5 5 5 5 5 5 5 4 3 2 2 2 3 5 6 8 8 9
10 13 13 12 10 10 12 16 15 11 8 5 4 4 4 4 5 6 7 8 9 9 10 10 9 8 7 6 7 7 8 8 8 8 7 7 6 6 5 5 4 5 5 6 6 6 7 7 7 6 6 6 5 5 5 5 4 3 3 2 2 3 4 5 7 8 9 9 10
19 15 12 10 7 6 8 12 14 13 10 6 3 2 2 3 4 6 7 8 9 10 11 11 11 10 8 7 6 6 6 6 7 7 7 7 7 6 6 5 5 5 5 5 5 5 6 6 6 6 5 5 5 5 5 4 4 3 3 2 3 4 5 7 8 9 9 10 11
35 27 18 13 8 6 6 8 10 11 10 8 5 3 2 3 4 5 7 8 9 10 10 11 11 10 9 7 7 6 6 6 6 6 6 6 6 6 6 6 5 5 5 5 5 5 5 5 5 5 5 5 5 5 4 4 3 3 3 3 4 6 7 8 9 10 10 11 12
42 41 34 24 16 11 9 9 10 10 10 10 8 6 5 4 4 5 6 7 8 9 9 9 9 8 8 7 7 7 7 6 6 6 6 6 6 6 6 6 6 6 6 6 6 5 5 5 5 5 5 5 5 4 4 4 3 4 4 5 6 7 8 9 9 10 10 10 11
22 32 36 35 29 22 18 15 14 12 11 11 11 10 8 7 6 6 6 7 8 8 8 8 7 7 7 7 7 7 7 7 7 6 7 7 7 7 7 7 7 7 7 7 7 7 6 6 6 6 5 5 5 4 4 4 4 5 5 6 7 8 8 9 9 9 9 10 11
2 9 17 26 30 28 25 21 18 16 14 13 13 13 12 10 8 7 7 7 8 8 8 7 7 7 7 7 7 7 7 7 7 7 7 7 7 7 7 7 7 7 7 7 7 7 7 7 6 6 5 5 5 5 5 5 5 6 6 7 7 8 8 8 8 8 9 10 11
-2 -1 2 8 17 22 23 23 21 19 17 16 15 15 14 12 10 9 8 8 7 7 8 8 7 7 7 7 7 7 7 8 7 7 7 7 7 7 7 7 7 7 6 6 6 6 6 6 6 6 6 5 5 5 5 6 6 7 7 8 8 8 7 7 7 7 8 10 12
1 1 2 2 6 11 16 19 19 19 18 17 17 18 17 16 13 10 8 7 7 7 8 8 8 8 8 8 8 8 8 8 8 8 7 7 7 7 7 7 7 6 6 6 6 6 6 6 6 6 5 5 5 5 5 6 6 7 7 7 7 7 6 6 7 8 9 11 12
2 6 7 4 3 5 10 15 18 18 18 17 17 18 19 19 16 12 9 7 7 7 8 8 8 8 8 9 9 8 8 8 8 8 7 7 7 7 7 6 6 6 6 6 6 6 6 5 5 5 5 5 5 5 5 6 6 7 7 6 6 6 6 6 8 9 11 12 13
1 5 7 7 5 4 5 10 15 17 17 17 16 15 16 19 18 15 11 9 8 7 7 8 8 8 8 8 8 8 8 8 8 8 7 7 7 7 7 6 6 6 6 6 6 6 6 5 5 4 4 4 5 5 6 6 7 6 6 6 6 6 7 8 9 11 12 13 14
2 4 7 7 6 5 3 4 9 13 15 15 16 15 14 15 16 15 13 11 9 7 7 7 7 7 7 8 8 8 8 8 8 8 7 7 7 7 6 6 6 6 6 6 6 6 6 5 4 4 4 4 5 6 7 7 7 7 7 6 7 7 8 9 11 12 13 14 15
5 4 4 5 6 6 5 4 4 6 10 13 14 15 15 15 15 15 14 12 10 9 8 7 7 7 7 7 7 7 7 8 7 7 7 7 6 6 6 6 6 6 6 6 6 6 6 5 4 4 4 5 6 7 8 8 8 7 7 7 7 8 9 10 11 13 14 15 16
9 6 3 2 4 5 5 4 3 2 4 7 10 12 14 15 16 16 15 14 13 11 9 7 7 6 6 6 6 7 7 7 7 7 6 6 6 6 6 6 6 6 6 6 6 6 6 6 5 5 5 6 7 8 8 8 8 7 7 7 8 9 10 11 12 14 15 16 17
13 8 4 1 2 3 4 4 3 2 2 4 6 9 11 13 15 16 17 17 16 14 11 9 7 6 6 5 5 6 6 7 7 7 6 6 6 6 6 6 6 6 6 6 6 7 7 7 7 7 8 8 8 8 8 8 8 7 7 8 8 9 11 12 13 14 15 16 16
15 11 7 2 1 1 3 4 3 2 1 2 3 5 7 8 10 12 14 16 17 16 15 12 10 8 7 6 6 6 6 7 7 7 7 7 6 6 6 6 6 6 6 7 8 8 9 9 10 10 9 9 8 8 8 8 8 8 8 8 9 10 11 12 13 14 15 16 15
15 13 9 5 2 2 2 3 3 3 2 1 2 2 2 3 4 6 8 11 13 15 15 14 13 11 9 8 7 7 6 7 7 7 7 7 7 7 7 7 7 7 8 8 9 10 10 10 11 10 9 8 8 8 8 8 8 8 8 8 9 10 11 11 12 13 13 14 13
15 14 11 7 4 3 3 4 4 4 4 3 2 1 1 1 2 3 5 6 9 10 12 13 13 12 11 9 8 8 7 7 7 8 8 8 8 8 8 8 9 9 10 10 11 11 11 10 10 9 8 8 7 7 8 8 8 8 8 8 9 9 9 10 10 11 11 11 9
14 14 13 10 7 5 5 5 7 7 6 4 3 2 2 2 3 4 4 5 7 8 9 10 11 11 11 10 9 9 9 8 8 8 9 9 9 9 9 10 10 11 12 12 12 11 10 9 8 7 7 7 7 7 7 7 7 7 7 7 7 7 8 8 8 8 8 7 5
12 13 13 12 9 8 7 7 8 9 8 6 4 3 3 2 3 4 5 5 7 8 9 9 9 9 9 9 10 9 9 9 9 9 9 9 9 10 10 11 12 12 13 13 12 11 9 8 7 6 6 6 6 7 7 7 7 7 7 6 6 6 6 6 6 6 5 4 3
9 11 11 11 10 8 8 8 9 10 9 8 6 4 3 3 3 4 5 5 6 7 8 8 8 8 8 8 9 9 9 9 9 10 10 10 10 11 11 12 12 13 13 12 11 10 8 7 6 6 5 6 6 7 7 7 6 6 6 5 5 5 5 5 5 5 4 4 4
6 8 9 9 8 7 7 7 10 11 11 10 8 6 5 4 4 4 5 5 6 6 6 6 6 7 7 8 9 9 9 9 9 9 10 10 11 11 12 12 13 13 12 11 10 9 8 7 6 5 6 6 6 6 6 6 6 5 5 5 5 5 5 5 5 4 4 4 5
Height
5669 5669 5670 5670 5672 5675 5677 5679 5682 5684 5687 5690 5692 5694 5696 5698 5700 5703 5705 5707 5710 5712 5714 5716 5717 5719 5720 5722 5723 5724 5726 5727 5729 5730 5731 5732 5733 5734 5735 5736 5737 5737 5737 5738 5738 5739 5740 5742 5743 5744 5745 5745 5746 5747 5747 5748 5749 5749 5750 5750 5750 5750 5750 5750 5750 5750 5750 5750 5750
5666 5667 5668 5669 5671 5673 5675 5678 5680 5683 5685 5688 5690 5691 5694 5696 5698 5700 5703 5705 5708 5710 5712 5714 5716 5717 5719 5720 5721 5723 5724 5726 5727 5728 5730 5730 5731 5732 5733 5734 5735 5735 5735 5736 5737 5738 5739 5740 5741 5742 5743 5743 5744 5745 5745 5746 5747 5747 5748 5748 5748 5748 5748 5748 5748 5748 5748 5748 5748
5664 5665 5666 5668 5669 5671 5674 5676 5678 5681 5683 5685 5687 5689 5691 5693 5696 5698 5701 5703 5706 5708 5710 5712 5714 5716 5717 5719 5720 5721 5723 5724 5725 5726 5728 5729 5730 5730 5731 5732 5733 5733 5734 5735 5735 5736 5737 5738 5739 5740 5740 5741 5742 5743 5743 5744 5745 5745 5745 5746 5746 5746 5746 5746 5746 5745 5745 5745 5745
5660 5662 5664 5665 5667 5669 5671 5674 5676 5678 5680 5682 5685 5687 5689 5691 5694 5696 5699 5701 5704 5706 5709 5711 5712 5714 5715 5717 5718 5720 5721 5722 5723 5725 5726 5727 5728 5729 5730 5730 5731 5732 5732 5733 5734 5735 5736 5737 5737 5738 5738 5739 5740 5740 5741 5742 5743 5743 5744 5744 5744 5744 5744 5744 5744 5743 5743 5743 5743
5656 5659 5662 5664 5666 5668 5670 5671 5674 5676 5678 5680 5683 5685 5687 5690 5692 5695 5697 5700 5702 5705 5707 5709 5711 5712 5714 5715 5716 5718 5719 5720 5722 5723 5724 5725 5726 5727 5728 5729 5730 5730 5731 5732 5733 5734 5735 5735 5736 5736 5736 5737 5738 5739 5739 5740 5741 5741 5741 5741 5741 5741 5742 5741 5741 5741 5741 5741 5740
5655 5658 5660 5663 5665 5667 5669 5670 5672 5675 5677 5680 5682 5684 5687 5689 5691 5694 5696 5699 5700 5703 5705 5707 5709 5710 5712 5713 5715 5716 5717 5719 5720 5721 5722 5723 5724 5725 5726 5727 5728 5729 5730 5730 5731 5732 5733 5734 5734 5735 5735 5735 5735 5736 5737 5738 5739 5739 5739 5739 5740 5740 5740 5740 5740 5739 5739 5739 5739
5655 5658 5660 5663 5665 5666 5668 5670 5672 5674 5677 5679 5681 5684 5686 5688 5690 5693 5695 5697 5699 5701 5703 5705 5707 5708 5710 5711 5713 5714 5716 5717 5718 5719 5720 5721 5722 5724 5725 5725 5726 5727 5728 5729 5730 5730 5731 5732 5732 5733 5733 5733 5734 5735 5735 5736 5736 5736 5737 5737 5737 5738 5738 5738 5737 5737 5737 5737 5737
5655 5658 5660 5662 5664 5666 5668 5670 5672 5675 5677 5679 5681 5683 5685 5687 5689 5691 5693 5695 5697 5699 5701 5703 5705 5706 5708 5709 5711 5712 5714 5715 5716 5718 5719 5720 5721 5722 5723 5724 5725 5725 5726 5727 5728 5729 5729 5730 5731 5731 5731 5732 5732 5733 5733 5734 5734 5735 5735 5735 5735 5735 5735 5735 5735 5735 5735 5735 5735
5655 5658 5660 5661 5663 5665 5667 5670 5672 5674 5676 5678 5680 5682 5684 5685 5687 5689 5691 5694 5695 5697 5699 5701 5702 5704 5705 5707 5709 5710 5712 5713 5715 5716 5717 5718 5719 5720 5721 5722 5723 5724 5725 5725 5726 5727 5728 5728 5729 5730 5730 5730 5731 5731 5731 5732 5732 5733 5733 5733 5733 5733 5733 5733 5733 5733 5733 5733 5733
5655 5657 5659 5660 5662 5664 5666 5669 5671 5673 5675 5676 5678 5680 5682 5684 5686 5688 5690 5691 5693 5695 5697 5698 5700 5702 5703 5705 5707 5709 5710 5711 5713 5714 5715 5716 5717 5719 5720 5720 5721 5722 5723 5724 5725 5725 5726 5727 5727 5728 5728 5729 5729 5730 5730 5730 5731 5731 5731 5731 5731 5731 5731 5731 5731 5731 5731 5731 5731
5654 5655 5657 5658 5660 5662 5665 5667 5669 5671 5673 5675 5677 5679 5680 5682 5684 5686 5688 5690 5691 5693 5695 5696 5698 5700 5701 5703 5705 5706 5708 5710 5711 5712 5714 5715 5716 5717 5718 5719 5720 5721 5721 5722 5723 5724 5725 5725 5726 5726 5727 5727 5728 5728 5729 5729 5729 5729 5729 5729 5729 5729 5729 5730 5730 5730 5730 5729 5729
5652 5654 5655 5657 5659 5661 5664 5666 5668 5670 5671 5673 5675 5677 5679 5680 5682 5684 5686 5688 5690 5691 5692 5694 5695 5697 5699 5701 5703 5704 5706 5708 5709 5710 5712 5713 5714 5715 5716 5717 5718 5719 5720 5721 5721 5722 5723 5724 5724 5725 5725 5726 5726 5727 5727 5727 5727 5727 5727 5727 5727 5727 5728 5728 5728 5728 5727 5727 5727
5651 5652 5654 5656 5659 5661 5663 5665 5666 5668 5670 5672 5674 5675 5677 5679 5681 5683 5685 5686 5688 5689 5691 5692 5694 5695 5697 5699 5700 5702 5704 5705 5707 5708 5710 5711 5712 5713 5714 5715 5716 5717 5718 5719 5720 5720 5721 5722 5723 5723 5724 5724 5725 5725 5725 5725 5725 5725 5725 5725 5725 5726 5726 5726 5726 5726 5725 5725 5725
5650 5652 5654 5655 5658 5660 5661 5663 5665 5667 5669 5670 5672 5674 5676 5678 5680 5681 5683 5685 5686 5688 5689 5691 5692 5694 5695 5697 5699 5700 5702 5703 5705 5706 5708 5709 5710 5711 5712 5713 5714 5715 5716 5717 5718 5719 5720 5720 5721 5721 5722 5722 5723 5723 5723 5723 5723 5723 5723 5724 5724 5725 5725 5725 5724 5724 5724 5723 5723
5650 5651 5653 5655 5656 5658 5660 5662 5663 5665 5667 5669 5671 5673 5675 5676 5678 5680 5681 5683 5685 5686 5688 5690 5691 5692 5694 5695 5697 5698 5700 5701 5703 5705 5706 5707 5708 5710 5710 5711 5712 5713 5714 5715 5716 5717 5718 5718 5719 5720 5720 5720 5720 5721 5721 5721 5721 5721 5722 5722 5722 5723 5723 5722 5722 5722 5721 5721 5720
5650 5651 5652 5654 5655 5657 5659 5660 5662 5664 5665 5668 5670 5671 5673 5675 5677 5678 5680 5682 5683 5685 5686 5688 5690 5691 5692 5694 5695 5697 5698 5700 5701 5703 5704 5705 5706 5708 5709 5710 5710 5711 5712 5714 5714 5715 5716 5716 5717 5717 5718 5718 5719 5719 5719 5719 5719 5720 5720 5720 5720 5720 5720 5720 5720 5720 5719 5719 5718
5650 5651 5652 5653 5654 5656 5657 5659 5660 5662 5664 5666 5668 5670 5672 5674 5675 5677 5679 5680 5682 5683 5685 5686 5688 5690 5691 5692 5694 5695 5696 5698 5699 5700 5702 5703 5705 5705 5707 5708 5709 5710 5711 5712 5713 5713 5714 5714 5715 5715 5715 5716 5716 5716 5717 5717 5717 5717 5718 5718 5718 5718 5718 5718 5718 5718 5717 5717 5716
5650 5650 5651 5653 5653 5654 5656 5658 5660 5661 5663 5665 5667 5669 5671 5672 5674 5675 5677 5679 5680 5681 5683 5685 5686 5688 5689 5690 5692 5693 5694 5696 5697 5699 5700 5701 5702 5704 5705 5706 5707 5708 5709 5710 5710 5711 5712 5712 5712 5713 5713 5714 5714 5714 5715 5715 5715 5715 5715 5715 5716 5716 5716 5716 5716 5715 5715 5715 5714
5650 5650 5651 5652 5652 5653 5655 5656 5658 5660 5662 5664 5666 5668 5669 5671 5672 5674 5675 5677 5678 5680 5681 5683 5685 5686 5687 5689 5690 5691 5693 5694 5695 5697 5698 5699 5700 5702 5703 5704 5705 5706 5707 5708 5708 5709 5709 5710 5710 5710 5711 5711 5712 5712 5712 5713 5713 5713 5713 5714 5714 5714 5714 5714 5714 5714 5713 5712 5711
5649 5649 5650 5651 5652 5653 5654 5655 5657 5659 5660 5662 5664 5666 5667 5669 5670 5672 5674 5675 5677 5678 5680 5681 5683 5684 5685 5687 5688 5689 5691 5692 5694 5695 5696 5697 5699 5700 5701 5702 5703 5704 5705 5705 5706 5707 5707 5708 5708 5708 5709 5709 5710 5710 5710 5710 5711 5711 5711 5711 5712 5712 5712 5712 5712 5711 5710 5710 5709
5646 5646 5646 5648 5649 5651 5653 5654 5655 5657 5659 5660 5662 5664 5666 5667 5669 5670 5672 5674 5675 5677 5678 5680 5681 5683 5684 5685 5686 5688 5689 5690 5692 5693 5694 5695 5697 5698 5699 5700 5701 5702 5703 5703 5704 5705 5705 5705 5706 5706 5707 5707 5708 5708 5708 5709 5709 5709 5709 5710 5710 5710 5710 5710 5709 5709 5708 5707 5706
5644 5644 5645 5646 5647 5650 5651 5652 5654 5655 5657 5659 5660 5662 5664 5666 5667 5669 5670 5672 5674 5675 5677 5678 5680 5681 5682 5683 5685 5686 5687 5689 5690 5691 5692 5694 5695 5696 5697 5698 5699 5700 5700 5701 5702 5702 5703 5704 5704 5705 5705 5705 5706 5706 5706 5706 5707 5707 5707 5707 5707 5707 5707 5707 5707 5706 5705 5705 5704
5642 5644 5645 5645 5647 5648 5649 5650 5651 5653 5655 5657 5659 5661 5662 5664 5666 5667 5669 5671 5672 5674 5675 5676 5678 5679 5680 5682 5683 5684 5685 5687 5688 5689 5690 5692 5693 5694 5695 5696 5697 5698 5698 5699 5700 5700 5701 5701 5702 5703 5703 5703 5704 5704 5704 5704 5705 5705 5705 5705 5705 5705 5705 5705 5704 5704 5703 5702 5701
5641 5642 5644 5645 5646 5648 5649 5650 5651 5652 5653 5655 5657 5659 5661 5662 5664 5666 5668 5669 5671 5672 5674 5675 5676 5677 5679 5680 5681 5682 5684 5685 5686 5688 5689 5690 5691 5692 5693 5694 5695 5696 5696 5697 5697 5698 5699 5699 5700 5700 5701 5701 5702 5702 5702 5702 5702 5702 5703 5703 5703 5703 5703 5702 5702 5701 5700 5699 5698
5640 5642 5643 5645 5646 5647 5648 5650 5650 5651 5653 5654 5655 5657 5659 5661 5663 5665 5666 5668 5669 5670 5672 5673 5674 5675 5677 5678 5680 5681 5682 5683 5685 5686 5687 5688 5689 5690 5691 5692 5693 5694 5694 5695 5695 5696 5696 5697 5698 5699 5699 5699 5700 5700 5700 5700 5700 5700 5700 5700 5700 5700 5700 5700 5699 5698 5697 5696 5695
5638 5641 5642 5644 5645 5646 5648 5649 5650 5650 5652 5653 5654 5656 5658 5659 5661 5663 5665 5666 5667 5669 5670 5671 5673 5674 5675 5676 5678 5679 5680 5681 5683 5684 5685 5686 5687 5688 5689 5690 5691 5691 5692 5693 5693 5694 5695 5695 5696 5696 5697 5697 5698 5698 5698 5698 5698 5698 5698 5698 5698 5698 5698 5697 5697 5696 5695 5694 5693
5636 5639 5640 5641 5644 5645 5646 5647 5648 5650 5650 5651 5653 5654 5656 5658 5660 5661 5663 5665 5666 5667 5668 5670 5671 5672 5673 5675 5676 5677 5679 5680 5681 5682 5683 5684 5685 5686 5687 5688 5689 5689 5690 5690 5691 5692 5692 5693 5694 5695 5695 5695 5695 5696 5696 5696 5696 5696 5696 5695 5695 5695 5695 5695 5694 5694 5693 5692 5691
5635 5636 5638 5640 5642 5643 5645 5646 5647 5648 5649 5650 5651 5653 5654 5656 5658 5660 5661 5663 5664 5665 5667 5668 5669 5670 5671 5673 5674 5675 5676 5678 5679 5680 5681 5682 5683 5684 5685 5686 5687 5687 5688 5688 5689 5690 5690 5691 5692 5692 5693 5693 5694 5694 5694 5694 5694 5694 5693 5693 5693 5693 5693 5692 5692 5691 5690 5690 5689
5634 5635 5637 5639 5640 5641 5643 5644 5645 5646 5648 5649 5650 5651 5653 5654 5656 5658 5660 5661 5663 5664 5665 5666 5667 5669 5670 5671 5672 5673 5675 5675 5677 5678 5679 5680 5681 5682 5683 5684 5685 5685 5686 5686 5687 5687 5688 5689 5690 5690 5691 5691 5691 5692 5692 5691 5691 5691 5691 5690 5690 5690 5690 5690 5690 5689 5688 5688 5687
5633 5634 5635 5637 5639 5640 5641 5643 5644 5645 5646 5647 5649 5650 5652 5653 5655 5657 5658 5660 5661 5662 5664 5665 5666 5667 5668 5669 5670 5671 5672 5673 5675 5675 5677 5678 5679 5680 5681 5682 5682 5683 5684 5684 5685 5685 5686 5687 5688 5688 5689 5689 5689 5689 5689 5689 5689 5689 5689 5688 5688 5688 5688 5687 5687 5687 5686 5685 5685
5631 5633 5634 5635 5637 5638 5640 5641 5643 5644 5645 5646 5647 5649 5650 5652 5653 5655 5657 5658 5660 5661 5662 5663 5664 5665 5666 5667 5668 5669 5670 5671 5672 5673 5675 5675 5677 5678 5679 5679 5680 5681 5681 5682 5683 5683 5684 5685 5685 5686 5687 5687 5687 5687 5687 5687 5686 5686 5686 5686 5685 5685 5685 5685 5685 5685 5684 5684 5683
5629 5631 5632 5634 5635 5636 5638 5639 5641 5643 5644 5645 5646 5647 5649 5650 5652 5654 5655 5657 5658 5659 5660 5662 5663 5664 5664 5665 5666 5667 5668 5669 5670 5671 5672 5673 5675 5675 5676 5677 5678 5679 5679 5680 5680 5681 5682 5682 5683 5684 5685 5685 5685 5685 5685 5684 5684 5684 5684 5683 5683 5683 5683 5683 5682 5682 5682 5681 5681
5627 5629 5630 5632 5633 5635 5636 5637 5639 5640 5642 5644 5645 5646 5647 5649 5650 5652 5654 5655 5656 5658 5659 5660 5661 5662 5663 5664 5665 5665 5666 5667 5668 5669 5670 5671 5672 5673 5674 5675 5676 5677 5677 5678 5678 5679 5679 5680 5681 5681 5682 5682 5682 5682 5682 5682 5682 5681 5681 5681 5681 5681 5680 5680 5680 5680 5680 5679 5679
5625 5627 5629 5630 5632 5633 5635 5636 5637 5639 5640 5642 5643 5644 5645 5647 5649 5650 5652 5653 5655 5656 5657 5659 5660 5660 5661 5662 5663 5664 5665 5665 5666 5668 5669 5670 5670 5671 5672 5673 5674 5675 5675 5676 5676 5677 5677 5678 5678 5679 5680 5680 5680 5680 5680 5680 5680 5679 5679 5679 5679 5679 5679 5678 5678 5678 5678 5677 5677
5623 5624 5626 5628 5630 5631 5633 5634 5635 5637 5638 5640 5641 5643 5644 5645 5647 5648 5650 5651 5653 5654 5655 5656 5657 5658 5659 5660 5661 5662 5663 5664 5665 5666 5667 5668 5669 5670 5670 5671 5672 5673 5673 5674 5674 5675 5675 5675 5676 5676 5677 5677 5677 5677 5677 5677 5677 5677 5677 5677 5677 5677 5677 5676 5676 5676 5676 5675 5675
5620 5622 5624 5625 5627 5629 5631 5632 5634 5635 5636 5638 5639 5641 5642 5644 5645 5647 5648 5650 5651 5652 5653 5654 5655 5656 5657 5658 5659 5660 5661 5662 5663 5664 5665 5666 5667 5667 5668 5669 5670 5670 5671 5671 5672 5672 5673 5673 5674 5674 5674 5675 5675 5675 5675 5675 5675 5675 5675 5675 5675 5675 5675 5675 5675 5674 5674 5674 5673
5618 5620 5621 5623 5625 5627 5629 5630 5631 5633 5634 5635 5637 5639 5640 5642 5644 5645 5646 5648 5649 5650 5650 5651 5653 5654 5655 5656 5657 5658 5659 5660 5661 5662 5663 5664 5664 5665 5666 5667 5668 5668 5669 5669 5670 5670 5670 5671 5671 5672 5672 5672 5673 5673 5673 5673 5673 5673 5673 5673 5673 5673 5673 5673 5673 5672 5672 5672 5671
5615 5617 5619 5620 5622 5624 5626 5628 5629 5630 5632 5633 5635 5636 5638 5640 5641 5643 5644 5645 5646 5647 5648 5649 5650 5651 5652 5653 5654 5655 5656 5657 5658 5660 5660 5661 5662 5663 5664 5665 5665 5666 5666 5667 5667 5668 5668 5669 5669 5670 5670 5670 5671 5671 5671 5671 5671 5671 5671 5671 5671 5671 5671 5671 5671 5670 5670 5670 5670
5613 5615 5616 5618 5620 5621 5623 5625 5627 5628 5630 5631 5632 5634 5635 5637 5638 5640 5641 5643 5644 5645 5646 5646 5647 5648 5649 5650 5651 5653 5654 5655 5656 5657 5658 5659 5660 5660 5661 5662 5663 5664 5664 5665 5665 5665 5666 5667 5667 5667 5668 5668 5669 5669 5669 5669 5669 5669 5669 5669 5669 5669 5669 5669 5669 5669 5668 5668 5667
5610 5612 5614 5615 5617 5619 5620 5622 5624 5625 5627 5628 5629 5631 5632 5634 5635 5637 5639 5640 5641 5643 5643 5644 5644 5645 5646 5648 5649 5650 5651 5652 5653 5654 5655 5656 5657 5658 5659 5660 5660 5661 5662 5662 5663 5663 5664 5664 5665 5665 5665 5666 5666 5667 5667 5667 5667 5667 5667 5667 5667 5667 5667 5667 5666 5666 5666 5665 5665
5607 5610 5611 5613 5615 5616 5618 5619 5621 5622 5624 5625 5626 5628 5630 5631 5633 5634 5636 5637 5639 5640 5641 5641 5642 5642 5644 5645 5646 5648 5649 5650 5651 5652 5653 5654 5655 5655 5656 5657 5658 5659 5660 5660 5661 5661 5662 5662 5663 5663 5663 5664 5664 5664 5665 5665 5665 5665 5665 5665 5665 5665 5665 5665 5664 5664 5663 5663 5662